Regional Weather Roundup
Issued by NWS Upton, NY

Current Version | Previous Version | Text Only | Print | Product List | Glossary On
Versions: 1 2 3 4 5 6 7 8 9 10 11 12 13 14 15 16 17 18 19 20 21 22 23 24 25 26 27 28 29 30 31 32 33 34 35 36 37 38 39 40 41 42 43 44 45 46 47 48 49 50
000 ASUS41 KOKX 110704 RWROKX REGIONAL WEATHER ROUNDUP NATIONAL WEATHER SERVICE NEW YORK NY 200 AM EST THU FEB 11 2016 NOTE: "FAIR" INDICATES FEW OR NO CLOUDS BELOW 12,000 FEET WITH NO SIGNIFICANT WEATHER AND/OR OBSTRUCTIONS TO VISIBILITY. NYZ071-072-176-178-NJZ106-104-110800- NEW YORK CITY METRO AREA CITY SKY/WX TMP DP RH WIND PRES REMARKS CENTRAL PARK FLURRIES 28 17 63 W13G22 29.78R WCI 17 LAGUARDIA APRT LGT SNOW 29 19 66 W18G25 29.76R WCI 16 KENNEDY INTL CLOUDY 29 17 61 W20G28 29.77S WCI 16 NEWARK/LIBERTY FLURRIES 27 18 69 W20G25 29.78R WCI 13 BRNX BOT. GARD N/A 28 21 74 W15 29.77R WCI 17 TETERBORO FLURRIES 28 18 66 W12G20 29.76R WCI 18 $$ NYZ177-179-078>081-110800- LONG ISLAND NEW YORK CITY SKY/WX TMP DP RH WIND PRES REMARKS FARMINGDALE MOCLDY 31 17 56 W12G20 29.73S WCI 22 ISLIP CLOUDY 31 17 56 W12 29.70S WCI 22 SHIRLEY CLOUDY 29 19 66 W6 29.72S WCI 23 RIVERHEAD N/A 30 16 55 NW6 29.67F WCI 24 WESTHAMPTON CLOUDY 24 17 74 W6 29.72S WCI 17 EAST HAMPTON FAIR 27 21 78 W5 29.69F WCI 21 MONTAUK POINT N/A 33 19 56 NW10 29.69F WCI 25 $$ NYZ052-065-067-110800- HUDSON VALLEY CITY SKY/WX TMP DP RH WIND PRES REMARKS WHITE PLAINS LGT SNOW 27 20 75 NW14G22 29.71R FOG WCI 16 NEWBURGH CLOUDY 25 16 68 NW23G29 29.74 WCI 10 MONTGOMERY CLOUDY 25 9 50 NW10G22 29.74R WCI 15 POUGHKEEPSIE CLOUDY 28 15 58 W15G26 29.73R WCI 16 ALBANY CLOUDY 26 11 52 NW7G20 29.71R WCI 18 $$ NJZ001-105-106-008-010-013-015-019>022-104-110800- NEW JERSEY CITY SKY/WX TMP DP RH WIND PRES REMARKS NEWARK/LIBERTY FLURRIES 27 18 69 W20G25 29.78R WCI 13 TETERBORO FLURRIES 28 18 66 W12G20 29.76R WCI 18 CALDWELL LGT SNOW 26 18 71 NW13G24 29.78R WCI 15 MORRISTOWN CLOUDY 27 16 63 W7G16 29.78S WCI 19 SOMERVILLE LGT SNOW 24 18 77 W8G20 29.80R WCI 15 SUSSEX CLOUDY 23 6 48 NW8G16 29.76S WCI 14 ANDOVER N/A 23 11 60 VRB6 29.77R WCI 16 TRENTON CLOUDY 24 16 71 NW13 29.82S WCI 12 MILLVILLE PTCLDY 25 11 55 W13G26 29.88S WCI 14 ATLANTIC CITY CLOUDY 26 11 52 W20 29.85R WCI 12 WRIGHTSTOWN CLOUDY 25 18 74 W14G23 29.81R WCI 13 TOMS RIVER CLOUDY 27 16 63 W18 29.82R WCI 13 BELMAR CLOUDY 27 12 54 W16G30 29.79R WCI 14 $$ PAZ047>061-062-071-110800- EASTERN PENNSYLVANIA CITY SKY/WX TMP DP RH WIND PRES REMARKS PHILADELPHIA MOCLDY 26 10 50 W15G23 29.88R WCI 14 ALLENTOWN MOCLDY 23 12 62 W10 29.82S WCI 12 SCRANTON MOCLDY 18 1 47 W15G22 29.78S WCI 4 $$ CTZ002-004>006-009-010-012-RIZ004-006-007-MAZ004-011-015-110800- SOUTHERN NEW ENGLAND IN CT CITY SKY/WX TMP DP RH WIND PRES REMARKS BRADLEY INTL MOCLDY 26 14 60 W8 29.67F WCI 18 HARTFORD CLOUDY 30 16 56 NW3 29.70S DANBURY LGT SNOW 27 18 69 W12 29.71S WCI 17 WTRBRY/OXFORD CLOUDY 27 14 59 W5 29.68S WCI 21 BRIDGEPORT CLOUDY 32 21 64 W12 29.71S WCI 23 MERIDEN CLOUDY 22 19 89 CALM 29.69F NEW HAVEN CLOUDY 32 21 64 VRB3 29.70S CHESTER PTSUNNY 28 19 69 NW3 29.68S GROTON CLEAR 21 21 100 CALM 29.69F WILLIMANTIC CLEAR 24 15 68 NW5 29.67F WCI 18 IN RI CITY SKY/WX TMP DP RH WIND PRES REMARKS PROVIDENCE PTCLDY 27 18 69 W5 29.67F WCI 22 BLOCK ISLAND PTCLDY 32 18 55 NW13G18 29.67S WCI 22 WESTERLY CLEAR 25 20 81 W3 29.69F IN MA CITY SKY/WX TMP DP RH WIND PRES REMARKS BOSTON CLEAR 30 19 63 W12 29.65S WCI 20 WORCESTER CLEAR 21 14 74 W13 29.60F WCI 9 WESTFIELD MOCLDY 25 13 60 W5 29.67F WCI 19 PROVINCETOWN CLEAR 32 22 66 W20G25 29.64S WCI 20 NANTUCKET CLOUDY 34 25 69 NW8 29.64F WCI 27 $$ ANZ330-335-338-340-345-350-353-355-110800- COASTAL MARINE OBSERVATIONS STATION/POSITION TIME SKY/WX TEMP WIND PRES VSBY WAVE AIR SEA DIR/SP/G HT/PER (UTC) (F) (DEG/KT/KT) (MB) (MI) (FT/S) NY HARB ENTRANCE 0550 32 43 280/ 23/ 27 1006.7 4/ 4 4S FIRE IS NOT AVBL 20S FIRE ISLAND 0550 34 44 300/ 21/ 25 1006.5 7/ 6 GREAT SOUTH BAY NOT AVBL 23SW MTP 0650 35 46 290/ 16/ 19 1005.0 7/12 HUDSON CANYON 0550 36 48 1007.0 7/ 6 KINGS POINT 0600 31 38 340/ 16/ 18 1006.9 EXECUTION ROCKS NOT AVBL CENTRAL LI SOUND 0600 35 300/ 14/ 17 N/A 3/ 4 EASTERN LI SOUND 0600 35 41 300/ 12/ 16 N/A ROBBINS REEF 0600 28 290/ 21/ 26 1007.1 $$ >>>>>>>>>>>>>>>>>>>>>>>>>>>> KEY <<<<<<<<<<<<<<<<<<<<<<<<<<< > < > SKY/WX - SKY CONDITION/PRESENT WEATHER < > TMP - TEMPERATURE IN FAHRENHEIT < > DP - DEWPOINT IN FAHRENHEIT < > RH - RELATIVE HUMIDITY IN PERCENT < > WIND - DIRECTION AND SPEED IN MPH < > PRES - MEAN SEA LEVEL PRESSURE IN INCHES OF HG < > WCI - WIND CHILL INDEX < > VSB - VISIBILITY IN MILES < > HX - HEAT INDEX < > TC - TEMPERATURE IN CELSIUS < > VRB - VARIABLE WIND DIRECTION < > < >>>>>>>>>>>>>>>>>>>>>>>>>>>> KEY <<<<<<<<<<<<<<<<<<<<<<<<<<<

USA.gov is the U.S. government's official web portal to all federal, state and local government web resources and services.